Météo Nord-Pas-de-Calais   La météo au plus près de chez vous

Station météorologique

Observations météo à Leran (09161)

09161003 391 m Dernier relevé à 17:30
22.4°C
Humidité 60 % Vent 10.1 km/h

Journée consultée

Lundi 31 Août 2026

Synthèse de la journée

Périodes de référence en UTC

Température maximale

22.5°C

à 17:00

06h 06h

Température minimale

17.6°C

à 08:24

18h 18h

Rafale maximale

26 km/h

à 02:06

00h 00h

Précipitations

0 mm

Cumul quotidien

06h 06h

Graphiques de la journée

Heure locale Réduire

Données détaillées

Relevés météo

Pas de 6 minutes Afficher les relevés infra-horaires
Relevés météo détaillés à Leran pour le Lundi 31 Août 2026
Heure Température °C Point de rosée °C Humidité % Vent moyen (raf.), km/h Précipitations mm
17:30 22.4 °C 14.3 °C 60 % 10 km/h (18 km/h) 0 mm0 mm
17:24 22.4 °C 14 °C 59 % 11 km/h (19 km/h) 0 mm0 mm
17:18 22.3 °C 14.2 °C 60 % 12 km/h (19 km/h) 0 mm0 mm
17:12 22.2 °C 13.8 °C 59 % 11 km/h (19 km/h) 0 mm0 mm
17:06 22.3 °C 14.4 °C 61 % 12 km/h (23 km/h) 0 mm0 mm
17:00 22.2 °C 14.1 °C 60 % 13 km/h (23 km/h) 0 mm0 mm
16:54 22.2 °C 14.3 °C 61 % 11 km/h (20 km/h) 0 mm0 mm
16:48 22.2 °C 14.3 °C 61 % 10 km/h (20 km/h) 0 mm0 mm
16:42 22.3 °C 14.2 °C 60 % 10 km/h (19 km/h) 0 mm0 mm
16:36 22.4 °C 14.3 °C 60 % 11 km/h (19 km/h) 0 mm0 mm
16:30 22.4 °C 14.3 °C 60 % 10 km/h (19 km/h) 0 mm0 mm
16:24 22.3 °C 14.2 °C 60 % 9 km/h (19 km/h) 0 mm0 mm
16:18 22 °C 14.1 °C 61 % 9 km/h (15 km/h) 0 mm0 mm
16:12 22.1 °C 14.2 °C 61 % 8 km/h (17 km/h) 0 mm0 mm
16:06 21.9 °C 14.3 °C 62 % 6 km/h (17 km/h) 0 mm0 mm
16:00 21.7 °C 14.1 °C 62 % 7 km/h (12 km/h) 0 mm0 mm
15:54 21.3 °C 14 °C 63 % 8 km/h (14 km/h) 0 mm0 mm
15:48 21.2 °C 14.1 °C 64 % 8 km/h (14 km/h) 0 mm0 mm
15:42 21.1 °C 14 °C 64 % 8 km/h (15 km/h) 0 mm0 mm
15:36 21.1 °C 14.7 °C 67 % 8 km/h (15 km/h) 0 mm0 mm
15:30 21 °C 14.6 °C 67 % 10 km/h (20 km/h) 0 mm0 mm
15:24 20.8 °C 14.4 °C 67 % 11 km/h (20 km/h) 0 mm0 mm
15:18 20.8 °C 14.4 °C 67 % 10 km/h (17 km/h) 0 mm0 mm
15:12 20.7 °C 14.3 °C 67 % 10 km/h (17 km/h) 0 mm0 mm
15:06 20.9 °C 14.3 °C 66 % 8 km/h (14 km/h) 0 mm0 mm
15:00 21.1 °C 14.7 °C 67 % 9 km/h (17 km/h) 0 mm0 mm
14:54 21.3 °C 14.7 °C 66 % 9 km/h (17 km/h) 0 mm0 mm
14:48 21.9 °C 14.8 °C 64 % 6 km/h (16 km/h) 0 mm0 mm
14:42 22.3 °C 14.9 °C 63 % 6 km/h (16 km/h) 0 mm0 mm
14:36 22.2 °C 14.6 °C 62 % 7 km/h (16 km/h) 0 mm0 mm
14:30 22 °C 14.9 °C 64 % 7 km/h (13 km/h) 0 mm0 mm
14:24 21.6 °C 14.7 °C 65 % 7 km/h (13 km/h) 0 mm0 mm
14:18 21.5 °C 14.6 °C 65 % 8 km/h (15 km/h) 0 mm0 mm
14:12 21 °C 14.6 °C 67 % 9 km/h (15 km/h) 0 mm0 mm
14:06 21 °C 15.1 °C 69 % 8 km/h (15 km/h) 0 mm0 mm
14:00 20.8 °C 15.1 °C 70 % 9 km/h (13 km/h) 0 mm0 mm
13:54 20.6 °C 15.2 °C 71 % 9 km/h (13 km/h) 0 mm0 mm
13:48 20.6 °C 15.6 °C 73 % 9 km/h (15 km/h) 0 mm0 mm
13:42 20.2 °C 15.4 °C 74 % 10 km/h (15 km/h) 0 mm0 mm
13:36 19.9 °C 15.5 °C 76 % 10 km/h (15 km/h) 0 mm0 mm
13:30 19.8 °C 15.4 °C 76 % 9 km/h (14 km/h) 0 mm0 mm
13:24 19.4 °C 15.3 °C 77 % 8 km/h (14 km/h) 0 mm0 mm
13:18 19.4 °C 15.9 °C 80 % 9 km/h (16 km/h) 0 mm0 mm
13:12 19.1 °C 15.6 °C 80 % 9 km/h (16 km/h) 0 mm0 mm
13:06 19.1 °C 15.8 °C 81 % 8 km/h (13 km/h) 0 mm0 mm
13:00 19.1 °C 15.6 °C 80 % 8 km/h (12 km/h) 0 mm0 mm
12:54 19 °C 15.7 °C 81 % 7 km/h (11 km/h) 0 mm0 mm
12:48 19 °C 15.7 °C 81 % 7 km/h (12 km/h) 0 mm0 mm
12:42 19.1 °C 15.8 °C 81 % 7 km/h (12 km/h) 0 mm0 mm
12:36 19.3 °C 16 °C 81 % 6 km/h (12 km/h) 0 mm0 mm
12:30 19.2 °C 15.7 °C 80 % 6 km/h (10 km/h) 0 mm0 mm
12:24 19.1 °C 16 °C 82 % 6 km/h (10 km/h) 0 mm0 mm
12:18 18.9 °C 15.8 °C 82 % 6 km/h (12 km/h) 0 mm0 mm
12:12 18.9 °C 16.1 °C 84 % 7 km/h (12 km/h) 0 mm0 mm
12:06 19 °C 16.2 °C 84 % 6 km/h (10 km/h) 0 mm0 mm
12:00 19 °C 16.2 °C 84 % 6 km/h (11 km/h) 0 mm0 mm
11:54 19.2 °C 16.1 °C 82 % 8 km/h (16 km/h) 0 mm0 mm
11:48 19.5 °C 15.8 °C 79 % 5 km/h (15 km/h) 0 mm0 mm
11:42 19.5 °C 15.8 °C 79 % 5 km/h (12 km/h) 0 mm0 mm
11:36 19.5 °C 15.8 °C 79 % 8 km/h (17 km/h) 0 mm0 mm
11:30 19.6 °C 15.7 °C 78 % 10 km/h (19 km/h) 0 mm0 mm
11:24 19.8 °C 15.6 °C 77 % 8 km/h (19 km/h) 0 mm0 mm
11:18 19.9 °C 15.7 °C 77 % 8 km/h (15 km/h) 0 mm0 mm
11:12 19.6 °C 15.7 °C 78 % 8 km/h (15 km/h) 0 mm0 mm
11:06 19.5 °C 15.4 °C 77 % 10 km/h (19 km/h) 0 mm0 mm
11:00 19.6 °C 15.7 °C 78 % 10 km/h (17 km/h) 0 mm0 mm
10:54 19.4 °C 15.5 °C 78 % 10 km/h (18 km/h) 0 mm0 mm
10:48 19.5 °C 15.6 °C 78 % 10 km/h (18 km/h) 0 mm0 mm
10:42 19.4 °C 15.5 °C 78 % 10 km/h (16 km/h) 0 mm0 mm
10:36 19.5 °C 15.8 °C 79 % 9 km/h (15 km/h) 0 mm0 mm
10:30 19.1 °C 15.6 °C 80 % 10 km/h (17 km/h) 0 mm0 mm
10:24 19 °C 15.7 °C 81 % 9 km/h (17 km/h) 0 mm0 mm
10:18 18.9 °C 15.8 °C 82 % 8 km/h (14 km/h) 0 mm0 mm
10:12 18.8 °C 15.5 °C 81 % 9 km/h (14 km/h) 0 mm0 mm
10:06 18.7 °C 15.6 °C 82 % 9 km/h (14 km/h) 0 mm0 mm
10:00 18.6 °C 15.8 °C 84 % 9 km/h (15 km/h) 0 mm0 mm
09:54 18.3 °C 15.5 °C 84 % 10 km/h (15 km/h) 0 mm0 mm
09:48 18.2 °C 15.8 °C 86 % 8 km/h (14 km/h) 0 mm0 mm
09:42 18 °C 15.8 °C 87 % 9 km/h (14 km/h) 0 mm0 mm
09:36 17.9 °C 15.9 °C 88 % 10 km/h (14 km/h) 0 mm0 mm
09:30 17.9 °C 16.1 °C 89 % 8 km/h (13 km/h) 0 mm0 mm
09:24 17.8 °C 16.1 °C 90 % 8 km/h (12 km/h) 0 mm0 mm
09:18 17.7 °C 16 °C 90 % 8 km/h (14 km/h) 0 mm0 mm
09:12 17.7 °C 16.2 °C 91 % 7 km/h (11 km/h) 0 mm0 mm
09:06 17.7 °C 16.2 °C 91 % 8 km/h (13 km/h) 0 mm0 mm
09:00 17.6 °C 16.3 °C 92 % 9 km/h (13 km/h) 0 mm0 mm
08:54 17.7 °C 16.6 °C 93 % 8 km/h (12 km/h) 0 mm0 mm
08:48 17.6 °C 16.5 °C 93 % 8 km/h (12 km/h) 0 mm0 mm
08:42 17.7 °C 16.6 °C 93 % 9 km/h (14 km/h) 0 mm0 mm
08:36 17.6 °C 16.3 °C 92 % 8 km/h (15 km/h) 0 mm0 mm
08:30 17.7 °C 16.2 °C 91 % 8 km/h (14 km/h) 0 mm0 mm
08:24 17.6 °C 16.1 °C 91 % 9 km/h (14 km/h) 0 mm0 mm
08:18 17.7 °C 16.2 °C 91 % 8 km/h (13 km/h) 0 mm0 mm
08:12 17.8 °C 16.5 °C 92 % 7 km/h (11 km/h) 0 mm0 mm
08:06 17.8 °C 16.3 °C 91 % 9 km/h (14 km/h) 0 mm0 mm
08:00 17.9 °C 16.1 °C 89 % 9 km/h (14 km/h) 0 mm0 mm
07:54 18.1 °C 16.1 °C 88 % 9 km/h (15 km/h) 0 mm0 mm
07:48 18.2 °C 15.8 °C 86 % 10 km/h (16 km/h) 0 mm0 mm
07:42 18.4 °C 15.6 °C 84 % 10 km/h (17 km/h) 0 mm0 mm
07:36 18.6 °C 15.3 °C 81 % 10 km/h (16 km/h) 0 mm0 mm
07:30 18.7 °C 14.8 °C 78 % 9 km/h (14 km/h) 0 mm0 mm
07:24 18.8 °C 14.7 °C 77 % 9 km/h (14 km/h) 0 mm0 mm
07:18 18.8 °C 14.5 °C 76 % 8 km/h (15 km/h) 0 mm0 mm
07:12 18.9 °C 14.4 °C 75 % 7 km/h (13 km/h) 0 mm0 mm
07:06 18.9 °C 14.2 °C 74 % 6 km/h (13 km/h) 0 mm0 mm
07:00 18.9 °C 14.2 °C 74 % 5 km/h (9 km/h) 0 mm0 mm
06:54 18.9 °C 14.2 °C 74 % 6 km/h (12 km/h) 0 mm0 mm
06:48 19 °C 14.3 °C 74 % 7 km/h (13 km/h) 0 mm0 mm
06:42 19 °C 14.3 °C 74 % 7 km/h (13 km/h) 0 mm0 mm
06:36 19 °C 14.3 °C 74 % 9 km/h (15 km/h) 0 mm0 mm
06:30 19 °C 14.3 °C 74 % 9 km/h (15 km/h) 0 mm0 mm
06:24 19 °C 14.3 °C 74 % 9 km/h (17 km/h) 0 mm0 mm
06:18 19 °C 14.3 °C 74 % 10 km/h (17 km/h) 0 mm0 mm
06:12 19.1 °C 14.4 °C 74 % 10 km/h (16 km/h) 0 mm0 mm
06:06 19.1 °C 14.4 °C 74 % 10 km/h (16 km/h) 0 mm0 mm
06:00 19.1 °C 14.6 °C 75 % 9 km/h (16 km/h) 0 mm0 mm
05:54 19.2 °C 14.9 °C 76 % 9 km/h (14 km/h) 0 mm0 mm
05:48 19.2 °C 14.9 °C 76 % 9 km/h (14 km/h) 0 mm0 mm
05:42 19.2 °C 14.9 °C 76 % 8 km/h (14 km/h) 0 mm0 mm
05:36 19.2 °C 15.1 °C 77 % 9 km/h (15 km/h) 0 mm0 mm
05:30 19.2 °C 15.1 °C 77 % 10 km/h (15 km/h) 0 mm0 mm
05:24 19.2 °C 15.3 °C 78 % 8 km/h (14 km/h) 0 mm0 mm
05:18 19.2 °C 15.5 °C 79 % 8 km/h (13 km/h) 0 mm0 mm
05:12 19.2 °C 15.5 °C 79 % 8 km/h (13 km/h) 0 mm0 mm
05:06 19.2 °C 15.5 °C 79 % 9 km/h (15 km/h) 0 mm0 mm
05:00 19.2 °C 15.7 °C 80 % 9 km/h (15 km/h) 0 mm0 mm
04:54 19.2 °C 15.7 °C 80 % 9 km/h (14 km/h) 0 mm0 mm
04:48 19.3 °C 15.8 °C 80 % 8 km/h (14 km/h) 0 mm0 mm
04:42 19.3 °C 15.8 °C 80 % 8 km/h (13 km/h) 0 mm0 mm
04:36 19.3 °C 15.8 °C 80 % 8 km/h (14 km/h) 0 mm0 mm
04:30 19.3 °C 16 °C 81 % 9 km/h (17 km/h) 0 mm0 mm
04:24 19.3 °C 15.8 °C 80 % 9 km/h (17 km/h) 0 mm0 mm
04:18 19.4 °C 16.1 °C 81 % 9 km/h (18 km/h) 0 mm0 mm
04:12 19.4 °C 16.1 °C 81 % 10 km/h (18 km/h) 0 mm0 mm
04:06 19.5 °C 16.3 °C 82 % 8 km/h (16 km/h) 0 mm0 mm
04:00 19.6 °C 16.6 °C 83 % 7 km/h (14 km/h) 0 mm0 mm
03:54 19.6 °C 16.6 °C 83 % 6 km/h (10 km/h) 0 mm0 mm
03:48 19.6 °C 16.4 °C 82 % 7 km/h (11 km/h) 0 mm0 mm
03:42 19.6 °C 16.4 °C 82 % 8 km/h (12 km/h) 0 mm0 mm
03:36 19.7 °C 16.5 °C 82 % 7 km/h (13 km/h) 0 mm0 mm
03:30 19.8 °C 16.4 °C 81 % 7 km/h (13 km/h) 0 mm0 mm
03:24 19.9 °C 16.3 °C 80 % 8 km/h (13 km/h) 0 mm0 mm
03:18 19.9 °C 16.1 °C 79 % 8 km/h (15 km/h) 0 mm0 mm
03:12 20 °C 16.2 °C 79 % 7 km/h (15 km/h) 0 mm0 mm
03:06 20 °C 16.2 °C 79 % 9 km/h (17 km/h) 0 mm0 mm
03:00 20.1 °C 16.1 °C 78 % 10 km/h (19 km/h) 0 mm0 mm
02:54 20.2 °C 16.4 °C 79 % 9 km/h (18 km/h) 0 mm0 mm
02:48 20.2 °C 16.2 °C 78 % 9 km/h (17 km/h) 0 mm0 mm
02:42 20.3 °C 16.3 °C 78 % 9 km/h (17 km/h) 0 mm0 mm
02:36 20.4 °C 16.2 °C 77 % 8 km/h (17 km/h) 0 mm0 mm
02:30 20.4 °C 16.2 °C 77 % 10 km/h (19 km/h) 0 mm0 mm
02:24 20.4 °C 16.2 °C 77 % 11 km/h (19 km/h) 0 mm0 mm
02:18 20.5 °C 16.3 °C 77 % 13 km/h (21 km/h) 0 mm0 mm
02:12 20.5 °C 16.1 °C 76 % 12 km/h (21 km/h) 0 mm0 mm
02:06 20.6 °C 16.2 °C 76 % 13 km/h (26 km/h) 0 mm0 mm
02:00 20.7 °C 16.3 °C 76 % 13 km/h (26 km/h) 0 mm0 mm
01:54 20.8 °C 16.4 °C 76 % 12 km/h (23 km/h) 0 mm0 mm
01:48 20.9 °C 16.5 °C 76 % 12 km/h (20 km/h) 0 mm0 mm
01:42 20.9 °C 16.5 °C 76 % 12 km/h (23 km/h) 0 mm0 mm
01:36 21 °C 16.6 °C 76 % 11 km/h (23 km/h) 0 mm0 mm
01:30 21.1 °C 16.7 °C 76 % 8 km/h (13 km/h) 0 mm0 mm
01:24 21.1 °C 16.7 °C 76 % 8 km/h (17 km/h) 0 mm0 mm
01:18 21.2 °C 16.8 °C 76 % 9 km/h (20 km/h) 0 mm0 mm
01:12 21.3 °C 16.7 °C 75 % 13 km/h (26 km/h) 0 mm0 mm
01:06 21.4 °C 16.6 °C 74 % 14 km/h (26 km/h) 0 mm0 mm
01:00 21.6 °C 16.8 °C 74 % 11 km/h (24 km/h) 0 mm0 mm
00:54 21.7 °C 16.6 °C 73 % 11 km/h (20 km/h) 0 mm0 mm
00:48 21.7 °C 16.6 °C 73 % 10 km/h (19 km/h) 0 mm0 mm
00:42 21.9 °C 16.8 °C 73 % 10 km/h (22 km/h) 0 mm0 mm
00:36 21.9 °C 16.8 °C 73 % 12 km/h (22 km/h) 0 mm0 mm
00:30 22 °C 16.9 °C 73 % 12 km/h (22 km/h) 0 mm0 mm
00:24 22.1 °C 16.8 °C 72 % 12 km/h (24 km/h) 0 mm0 mm
00:18 22.1 °C 16.8 °C 72 % 14 km/h (24 km/h) 0 mm0 mm
00:12 22.2 °C 16.9 °C 72 % 13 km/h (23 km/h) 0 mm0 mm
00:06 22.3 °C 17 °C 72 % 14 km/h (25 km/h) 0 mm0 mm
00:00 22.4 °C 17.1 °C 72 % 13 km/h (23 km/h) 0 mm0 mm

Données via Météo-France

Relevés météo à Leran

Cette page rassemble les observations de la station de Leran : température, humidité, vent, précipitations et pression atmosphérique. Les graphiques facilitent le suivi de la journée, tandis que le tableau donne accès aux mesures horaires et infra-horaires disponibles.

Pour replacer ces mesures dans leur contexte, consultez la climatologie de Leran ainsi que ses normales et records. Retrouvez aussi la carte des observations météo en temps réel.